Погода в Каменке

Россия / Пензенская область     53°11′07″N   44°02′48″E
темп.,
°C
ветер,
м/с
пор.,
м/с
влажн.,
%
обл.,
%
осадки,
мм/ч
давл.,
гПа
погр.,
м
2 декабря, чт
чт200:00−2юз5107599 0.0 998643
03:00−2юз61190100 0.1 999762
06:00−2з6108399 0.4 1000964
09:00−3з6973100 0.5 10041144
12:00−2з7962100 0.0 10061182
15:00−3зюз695929 0.0 1007898
18:00−3юз51164100 0.0 1008694
21:00−2ююз71366100 0.0 1008613
3 декабря, пт
пт300:00−2ююз71593100 0.4 1007636
03:00−1юз71695100 0.9 1007607
06:00+1юз71597100 0.3 1007614
09:00+1юз71496100 0.3 1009476
12:00+2юз61296100 0.0 1010662
15:00+2ююз51296100 0.0 1011441
18:00+3ююз61398100 0.0 1011385
21:00+3ю71598100 0.0 1010458
4 декабря, сб
сб400:00+4ю81893100 0.0 1010534
03:00+3ююз9198598 0.1 1008606
06:00+2ююз91982100 0.0 1007612
09:00+3ююз81693100 2.2 1007920
12:00+1зсз3899100 2.1 1009302
15:00+1з4783100 2.1 1011487
18:00−1зюз3885100 0.0 1012300
21:00−1з498152 0.0 1014481
5 декабря, вс
вс500:00−2з48866 0.0 1015509
03:00−3зсз477996 0.0 1016673
06:00−3з37766 0.0 1017537
09:00−3зсз3679100 0.0 1019442
12:00−2сз3471100 0.0 1020507
15:00−2сз23725 0.0 1021224
18:00−3с117622 0.0 102214
21:00−3всв1176100 0.0 102330
6 декабря, пн
пн600:00−3в2276100 0.0 102465
03:00−3в2477100 0.0 1025108
06:00−3в3576100 0.0 1025193
09:00−3в3774100 0.0 1027267
12:00−1вюв576588 0.0 1027362
15:00−1вюв596696 0.0 1027423
18:00−2вюв5106998 0.0 1028407
21:00−2юв61280100 0.0 1028492